Wind from 330

Air temperature 19.4° C
Dewpoint 16.7° C

Last reported at 2014-Apr-21 09:30 UTC.
Time now 2014-Apr-21 10:11 UTC

Location: N 37°58' E 023°43'.
View on Google Maps.

See reports from other nearby stations

Tides Stations Pressure Air Temp Water Temp Dewpoint Dewpoint depression Visibility Wind Speed Wind Dir Waves Ship positions

  
sailing weather and tide predictions

SV1IW Athens weather

date/time (UTC)wind fromknots sea level pressurealtimeterstation pressurevisibilityair tempwater tempwave heightnotes
2014-Apr-21 09:30 330 19.4
2014-Apr-21 09:00 033 18.3
2014-Apr-21 08:30 192 4 gusting 7 17.2
2014-Apr-21 08:00 248 3 gusting 6 17.2
2014-Apr-21 07:30 250 4 gusting 7 17.8
2014-Apr-21 07:00 343 4 gusting 6 18.3
2014-Apr-21 06:30 190 2 gusting 5 18.3
2014-Apr-21 06:00 223 2 gusting 6 17.8
2014-Apr-21 05:30 202 3 gusting 5 17.2
2014-Apr-21 05:00 275 1 gusting 4 17.2
2014-Apr-21 04:30 290 16.7
2014-Apr-21 04:00 237 0 gusting 5 16.7
2014-Apr-21 03:30 152 2 gusting 5 16.7
2014-Apr-21 03:00 135 0 gusting 6 16.7
2014-Apr-21 02:30 202 4 gusting 6 16.7
2014-Apr-21 02:00 184 2 gusting 8 16.7
2014-Apr-21 01:30 149 3 gusting 7 16.7
2014-Apr-21 01:00 130 2 gusting 5 17.2
2014-Apr-21 00:30 289 17.2
2014-Apr-20 20:00 350 2 gusting 5 18.3
2014-Apr-20 19:30 346 2 gusting 5 18.3
2014-Apr-20 19:00 346 18.3
2014-Apr-20 18:30 293 18.9
2014-Apr-20 18:00 226 0 gusting 5 18.9
2014-Apr-20 17:30 201 2 gusting 5 18.9
2014-Apr-19 23:30 247 15.0
2014-Apr-19 23:00 247 15.0
2014-Apr-19 22:30 247 15.0
2014-Apr-19 22:00 247 15.6
2014-Apr-19 21:30 246 2 gusting 6 15.6
2014-Apr-19 21:00 258 15.6
2014-Apr-19 20:30 267 3 gusting 6 16.1
2014-Apr-19 20:00 261 2 gusting 6 16.1
2014-Apr-19 19:30 256 4 gusting 6 16.1
2014-Apr-19 19:00 255 2 gusting 5 16.7
2014-Apr-19 18:30 247 2 gusting 6 16.7
2014-Apr-19 18:00 265 4 gusting 6 17.2
2014-Apr-19 17:30 227 4 gusting 6 17.2
2014-Apr-19 17:00 259 3 gusting 8 18.3
2014-Apr-19 16:30 256 5 gusting 7 20.0
2014-Apr-19 16:00 242 5 gusting 7 25.0
2014-Apr-19 15:30 255 5 gusting 12 34.4
2014-Apr-19 15:00 250 6 gusting 12 36.7
2014-Apr-19 14:30 251 5 gusting 12 37.8
2014-Apr-19 14:00 253 7 gusting 13 27.8
2014-Apr-19 13:30 234 6 gusting 13 36.1
2014-Apr-19 13:00 255 6 gusting 13 33.3
2014-Apr-19 12:30 230 5 gusting 13 34.4
2014-Apr-19 12:00 223 6 gusting 13 27.8
2014-Apr-19 11:30 250 7 gusting 13 21.7
2014-Apr-19 11:01 167 5 gusting 13 20.6
2014-Apr-19 10:30 189 4 gusting 10 20.0